KN6CW-3 Weather Reports


Display with metric or nautical units.
time (UTC)temp
F
wind
direction
speed
MPH
gust
MPH
rain 1hr
in
rain 24hr
in
rain mn
in
humidity
%
barometer
mb
20260506025459 0 147 255.0 0.0 0.00 0.00 0.00
20260506025454 64 227 3.0 7.0 0.00 0.02 0.02 57 1008.2
20260506024954 64 178 3.0 5.0 0.00 0.02 0.02 57 1008.1
20260506024454 64 199 2.0 7.0 0.00 0.02 0.02 57 1008.2
20260506023958 0 147 255.0 0.0 0.00 0.00 0.00
20260506023953 64 174 2.0 7.0 0.00 0.02 0.02 57 1008.3
20260506023453 65 180 2.0 6.0 0.00 0.02 0.02 57 1008.3
20260506022953 65 181 2.0 5.0 0.00 0.02 0.02 56 1008.3
20260506022457 0 147 255.0 0.0 0.00 0.00 0.00
20260506022452 65 167 2.0 4.0 0.00 0.02 0.02 56 1008.3
20260506021952 65 195 2.0 7.0 0.00 0.02 0.02 55 1008.3
20260506021452 66 156 1.0 3.0 0.00 0.02 0.02 54 1008.4
20260506020956 0 147 255.0 0.0 0.00 0.00 0.00
20260506020952 66 241 2.0 6.0 0.00 0.02 0.02 53 1008.3
20260506020451 67 196 2.0 4.0 0.00 0.02 0.02 53 1008.3
20260506015951 67 204 3.0 8.0 0.00 0.02 0.02 52 1008.2
20260506015455 0 147 255.0 0.0 0.00 0.00 0.00
20260506015451 67 166 3.0 6.0 0.00 0.02 0.02 51 1008.2
20260506014950 68 173 4.0 8.0 0.00 0.02 0.02 51 1008.2
20260506014450 68 224 3.0 9.0 0.00 0.02 0.02 51 1008.1
20260506013950 68 163 4.0 10.0 0.00 0.02 0.02 51 1008.1
20260506013450 68 237 4.0 11.0 0.00 0.02 0.02 51 1008.1
20260506012949 68 241 4.0 6.0 0.00 0.02 0.02 52 1008.0
20260506012454 0 147 255.0 0.0 0.00 0.00 0.00
20260506012449 68 202 3.0 9.0 0.00 0.02 0.02 52 1008.0
20260506011949 68 202 3.0 6.0 0.00 0.02 0.02 52 1007.9
20260506011449 68 224 3.0 6.0 0.00 0.02 0.02 52 1007.9
20260506010954 0 147 255.0 0.0 0.00 0.00 0.00
20260506010948 68 243 3.0 9.0 0.00 0.02 0.02 51 1007.8
20260506010448 68 199 3.0 7.0 0.00 0.02 0.02 51 1007.8
20260506005947 68 213 3.0 7.0 0.00 0.02 0.02 51 1007.8
20260506005453 0 147 255.0 0.0 0.00 0.00 0.00
20260506005447 68 221 3.0 10.0 0.00 0.02 0.02 51 1007.6
20260506004947 68 212 3.0 10.0 0.00 0.02 0.02 51 1007.5
20260506004447 68 211 3.0 8.0 0.00 0.02 0.02 51 1007.5
20260506003951 0 147 255.0 0.0 0.00 0.00 0.00
20260506003946 69 261 3.0 8.0 0.00 0.02 0.02 51 1007.5
20260506003446 69 273 3.0 7.0 0.00 0.02 0.02 50 1007.6
20260506002946 69 176 3.0 6.0 0.00 0.02 0.02 50 1007.6
20260506002445 69 213 4.0 13.0 0.00 0.02 0.02 49 1007.5
20260506001945 69 203 3.0 8.0 0.00 0.02 0.02 49 1007.5
20260506001445 70 188 3.0 5.0 0.00 0.02 0.02 49 1007.4
20260506000945 70 229 3.0 8.0 0.00 0.02 0.02 48 1007.4
20260506000445 70 221 3.0 6.0 0.00 0.02 0.02 48 1007.4
20260505235944 70 155 4.0 10.0 0.00 0.02 0.02 48 1007.3
20260505235444 71 238 4.0 7.0 0.00 0.02 0.02 47 1007.3
20260505234943 71 207 4.0 9.0 0.00 0.02 0.02 47 1007.2
20260505234443 71 221 4.0 9.0 0.00 0.02 0.02 47 1007.3
20260505233948 0 147 255.0 0.0 0.00 0.00 0.00
20260505233943 71 200 4.0 9.0 0.00 0.02 0.02 47 1007.3
20260505233443 71 205 4.0 12.0 0.00 0.02 0.02 47 1007.2
20260505232942 72 241 5.0 9.0 0.00 0.02 0.02 47 1007.1
20260505232442 72 209 5.0 16.0 0.00 0.02 0.02 47 1007.1
20260505231942 72 215 5.0 10.0 0.00 0.02 0.02 46 1007.1
20260505231441 72 198 5.0 10.0 0.00 0.02 0.02 46 1007.1
20260505230941 72 198 4.0 16.0 0.00 0.02 0.02 45 1007.0
20260505230441 73 226 4.0 10.0 0.00 0.02 0.02 42 1007.1
20260505225940 73 214 5.0 12.0 0.00 0.02 0.02 41 1007.0
20260505225445 0 147 255.0 0.0 0.00 0.00 0.00
20260505225440 73 226 5.0 11.0 0.00 0.02 0.02 41 1007.0
20260505224940 73 193 5.0 11.0 0.00 0.02 0.02 41 1007.0
20260505224440 73 216 5.0 13.0 0.00 0.02 0.02 41 1006.9
20260505223944 0 147 255.0 0.0 0.00 0.00 0.00
20260505223939 73 165 5.0 14.0 0.00 0.02 0.02 41 1006.8
20260505223439 73 241 6.0 14.0 0.00 0.02 0.02 40 1006.7
20260505222444 0 147 255.0 0.0 0.00 0.00 0.00
20260505222438 73 232 6.0 13.0 0.00 0.02 0.02 40 1006.8
20260505221938 73 180 6.0 13.0 0.00 0.02 0.02 41 1006.9
20260505221438 73 215 5.0 14.0 0.00 0.02 0.02 41 1006.7
20260505220942 0 147 255.0 0.0 0.00 0.00 0.00
20260505220938 73 242 5.0 11.0 0.00 0.02 0.02 41 1006.7
20260505220437 74 227 6.0 11.0 0.00 0.02 0.02 41 1006.9
20260505215938 74 163 6.0 16.0 0.00 0.02 0.02 40 1006.7
20260505215437 73 225 6.0 17.0 0.00 0.02 0.02 41 1006.6
20260505214936 73 209 6.0 13.0 0.00 0.02 0.02 40 1006.7
20260505214436 73 219 6.0 15.0 0.00 0.02 0.02 40 1006.7
20260505213941 0 147 255.0 0.0 0.00 0.00 0.00
20260505213436 73 232 6.0 17.0 0.00 0.02 0.02 42 1006.7
20260505212935 73 259 6.0 10.0 0.00 0.02 0.02 43 1006.7
20260505212440 0 147 255.0 0.0 0.00 0.00 0.00
20260505212435 74 247 6.0 15.0 0.00 0.02 0.02 44 1006.6
20260505211935 74 227 5.0 12.0 0.00 0.02 0.02 44 1006.5
20260505211434 74 130 6.0 16.0 0.00 0.02 0.02 41 1006.5
20260505210935 75 151 6.0 16.0 0.00 0.02 0.02 40 1006.6
20260505210434 75 215 7.0 13.0 0.00 0.02 0.02 40 1006.5
20260505205933 76 211 6.0 18.0 0.00 0.02 0.02 40 1006.4
20260505204933 76 208 5.0 13.0 0.00 0.02 0.02 41 1006.5
20260505204433 76 184 6.0 16.0 0.00 0.02 0.02 39 1006.4
20260505203932 76 167 7.0 16.0 0.00 0.02 0.02 39 1006.6
20260505203432 76 86 7.0 16.0 0.00 0.02 0.02 37 1006.5
20260505202932 76 304 7.0 14.0 0.00 0.02 0.02 37 1006.7
20260505202431 77 226 9.0 25.0 0.00 0.02 0.02 36 1006.6
20260505201931 77 234 8.0 21.0 0.00 0.02 0.02 36 1006.6
20260505200938 0 147 255.0 0.0 0.00 0.00 0.00
20260505200430 77 211 7.0 17.0 0.00 0.02 0.02 38 1006.5
20260505195932 76 242 7.0 18.0 0.00 0.02 0.02 38 1006.4
20260505195435 0 147 255.0 0.0 0.00 0.00 0.00
20260505195430 76 166 8.0 13.0 0.00 0.02 0.02 38 1006.6
20260505194429 76 237 9.0 24.0 0.00 0.02 0.02 38 1006.7
20260505193934 0 147 255.0 0.0 0.00 0.00 0.00
20260505193930 77 157 7.0 15.0 0.00 0.02 0.02 39 1006.7
20260505193429 76 235 7.0 20.0 0.00 0.02 0.02 39 1007.0
20260505192928 75 273 8.0 12.0 0.00 0.02 0.02 39 1007.2
20260505192433 0 147 255.0 0.0 0.00 0.00 0.00
20260505192428 75 182 8.0 16.0 0.00 0.02 0.02 39 1007.2
20260505191928 75 294 8.0 14.0 0.00 0.02 0.02 38 1007.2
20260505191427 77 169 9.0 18.0 0.00 0.02 0.02 37 1007.2
20260505190932 0 147 255.0 0.0 0.00 0.00 0.00
20260505190927 77 213 8.0 16.0 0.00 0.02 0.02 37 1007.2
20260505190427 76 181 8.0 17.0 0.00 0.02 0.02 39 1007.1
20260505185927 76 174 7.0 19.0 0.00 0.02 0.02 40 1007.3
20260505185426 76 178 7.0 12.0 0.00 0.02 0.02 39 1007.2
20260505184926 76 192 8.0 15.0 0.00 0.02 0.02 41 1007.4
20260505184426 76 275 8.0 24.0 0.00 0.02 0.02 40 1007.5
20260505183931 0 147 255.0 0.0 0.00 0.00 0.00
20260505183925 76 230 8.0 19.0 0.00 0.02 0.02 40 1007.8
20260505183427 75 194 9.0 16.0 0.00 0.02 0.02 40 1007.7
20260505182925 76 222 8.0 23.0 0.00 0.02 0.02 38 1007.7
20260505182425 77 182 6.0 13.0 0.00 0.02 0.02 40 1007.8
20260505181924 77 285 6.0 12.0 0.00 0.02 0.02 39 1007.6
20260505181424 76 161 6.0 13.0 0.00 0.02 0.02 42 1007.9
20260505180928 0 147 255.0 0.0 0.00 0.00 0.00
20260505180924 76 156 7.0 16.0 0.00 0.02 0.02 40 1007.8
20260505180423 76 167 7.0 17.0 0.00 0.02 0.02 40 1007.9
20260505175923 76 266 7.0 16.0 0.00 0.02 0.02 41 1007.9
20260505175427 0 147 255.0 0.0 0.00 0.00 0.00
20260505175423 75 186 9.0 18.0 0.00 0.02 0.02 42 1008.0
20260505174422 75 267 7.0 16.0 0.00 0.02 0.02 43 1008.3
20260505173927 0 147 255.0 0.0 0.00 0.00 0.00
20260505173922 75 214 6.0 21.0 0.00 0.02 0.02 45 1008.1
20260505173422 75 211 7.0 16.0 0.00 0.02 0.02 44 1008.2
20260505172921 75 264 7.0 18.0 0.00 0.02 0.02 44 1008.2
20260505172428 0 147 255.0 0.0 0.00 0.00 0.00
20260505172421 75 199 7.0 15.0 0.00 0.02 0.02 45 1008.3
20260505171921 74 221 7.0 20.0 0.00 0.02 0.02 48 1008.3
20260505171420 74 197 8.0 21.0 0.00 0.02 0.02 47 1008.4
20260505170925 0 147 255.0 0.0 0.00 0.00 0.00
20260505170920 74 217 9.0 19.0 0.00 0.02 0.02 46 1008.4
20260505170420 73 226 9.0 17.0 0.00 0.02 0.02 49 1008.3
20260505165419 73 196 8.0 16.0 0.00 0.02 0.02 48 1008.6
20260505164919 73 209 7.0 17.0 0.00 0.02 0.02 49 1008.6
20260505164419 74 175 7.0 14.0 0.00 0.02 0.02 49 1008.6
20260505163924 0 147 255.0 0.0 0.00 0.00 0.00
20260505163918 73 205 7.0 16.0 0.00 0.02 0.02 51 1008.7
20260505163418 73 265 6.0 20.0 0.00 0.02 0.02 51 1008.8
20260505162918 74 264 5.0 10.0 0.00 0.02 0.02 51 1008.9
20260505162422 0 147 255.0 0.0 0.00 0.00 0.00
20260505162417 73 239 6.0 13.0 0.00 0.02 0.02 52 1008.9
20260505161917 72 244 6.0 13.0 0.00 0.02 0.02 52 1009.1
20260505161417 72 187 5.0 13.0 0.00 0.02 0.02 52 1009.0
20260505160922 0 147 255.0 0.0 0.00 0.00 0.00
20260505160917 71 229 6.0 11.0 0.00 0.02 0.02 54 1009.1
20260505160416 71 202 6.0 16.0 0.00 0.02 0.02 52 1009.1
20260505152915 69 233 6.0 12.0 0.00 0.02 0.02 57 1009.5
20260505152419 0 147 255.0 0.0 0.00 0.00 0.00
20260505151914 69 223 5.0 14.0 0.00 0.02 0.02 59 1009.5
20260505151414 69 210 5.0 10.0 0.00 0.02 0.02 60 1009.7
20260505150918 0 147 255.0 0.0 0.00 0.00 0.00
20260505150913 68 242 5.0 10.0 0.00 0.02 0.02 60 1009.7
20260505150413 68 164 5.0 9.0 0.00 0.02 0.02 60 1009.8
20260505140409 63 215 5.0 15.0 0.00 0.02 0.02 68 1010.2
20260505124905 60 297 4.0 6.0 0.00 0.02 0.02 73 1010.0
20260505124405 60 227 4.0 9.0 0.00 0.02 0.02 72 1010.0
20260505123909 0 147 255.0 0.0 0.00 0.00 0.00
20260505123904 59 184 4.0 8.0 0.00 0.02 0.02 71 1010.1
20260505123404 59 254 4.0 8.0 0.00 0.02 0.02 72 1010.0
20260505122904 59 180 4.0 10.0 0.00 0.02 0.02 72 1010.0
20260505122408 0 147 255.0 0.0 0.00 0.00 0.00
20260505122404 59 218 4.0 9.0 0.00 0.02 0.02 73 1009.8
20260505121903 59 221 4.0 9.0 0.00 0.02 0.02 72 1010.1
20260505121403 59 230 4.0 8.0 0.00 0.02 0.02 73 1010.1
20260505120908 0 147 255.0 0.0 0.00 0.00 0.00
20260505120903 59 229 3.0 11.0 0.00 0.02 0.02 73 1010.0
20260505120402 58 188 3.0 5.0 0.00 0.02 0.02 73 1010.0
20260505115902 58 227 3.0 7.0 0.00 0.02 0.02 73 1010.0
20260505115408 0 147 255.0 0.0 0.00 0.00 0.00
20260505115402 58 239 3.0 5.0 0.00 0.02 0.02 74 1010.1
20260505114902 58 271 3.0 8.0 0.00 0.02 0.02 74 1010.2
20260505114401 58 268 3.0 6.0 0.00 0.02 0.02 75 1010.0
20260505113906 0 147 255.0 0.0 0.00 0.00 0.00
20260505113902 58 263 3.0 6.0 0.00 0.02 0.02 75 1009.9
20260505113401 57 166 3.0 6.0 0.00 0.02 0.02 76 1009.9
20260505112900 57 205 4.0 6.0 0.00 0.02 0.02 76 1009.9
20260505112405 0 147 255.0 0.0 0.00 0.00 0.00
20260505112400 57 199 3.0 7.0 0.00 0.02 0.02 76 1009.8
20260505111900 56 228 3.0 8.0 0.00 0.02 0.02 76 1009.6
20260505111359 56 188 3.0 8.0 0.00 0.02 0.02 77 1009.5
20260505110904 0 147 255.0 0.0 0.00 0.00 0.00
20260505110859 56 221 3.0 10.0 0.00 0.02 0.02 78 1009.5
20260505110359 55 194 3.0 10.0 0.00 0.02 0.02 79 1009.4
20260505101856 54 248 3.0 5.0 0.00 0.02 0.02 81 1009.7
20260505101356 54 208 3.0 7.0 0.00 0.02 0.02 82 1009.7
20260505100900 0 147 255.0 0.0 0.00 0.00 0.00
20260505100856 54 200 3.0 4.0 0.00 0.02 0.02 82 1009.5
20260505100356 55 161 3.0 4.0 0.00 0.02 0.02 82 1009.4
20260505095855 55 203 3.0 6.0 0.00 0.02 0.02 82 1009.4
20260505095633 0 147 255.0 0.0 0.00 0.00 0.00
20260505095400 0 147 255.0 0.0 0.00 0.00 0.00
20260505095355 54 213 3.0 5.0 0.00 0.02 0.02 83 1009.3
20260505094855 54 213 3.0 6.0 0.00 0.02 0.02 84 1009.2
20260505094354 54 201 2.0 5.0 0.01 0.02 0.02 85 1009.1
20260505093859 0 147 255.0 0.0 0.00 0.00 0.00
20260505093854 54 211 2.0 4.0 0.02 0.02 0.02 86 1009.1
20260505093354 54 171 2.0 5.0 0.02 0.02 0.02 86 1009.2
20260505092853 54 215 2.0 4.0 0.02 0.02 0.02 87 1009.2
20260505092358 0 147 255.0 0.0 0.00 0.00 0.00
20260505092353 54 192 2.0 4.0 0.02 0.02 0.02 87 1009.1
20260505091853 54 165 2.0 5.0 0.02 0.02 0.02 88 1009.1
20260505091352 53 211 1.0 4.0 0.02 0.02 0.02 89 1009.0
20260505090857 0 147 255.0 0.0 0.00 0.00 0.00
20260505090852 53 211 1.0 2.0 0.02 0.02 0.02 89 1009.1
20260505090352 54 211 1.0 1.0 0.02 0.02 0.02 88 1009.2
20260505085852 54 211 1.0 2.0 0.02 0.02 0.02 87 1009.2
20260505085356 0 147 255.0 0.0 0.00 0.00 0.00
20260505085351 54 211 2.0 3.0 0.02 0.02 0.02 86 1009.3
20260505084851 54 176 3.0 6.0 0.02 0.02 0.02 84 1009.4
20260505084351 55 186 4.0 7.0 0.01 0.01 0.01 80 1009.5
20260505083855 0 147 255.0 0.0 0.00 0.00 0.00
20260505083851 56 221 4.0 10.0 0.00 0.00 0.00 76 1009.3
20260505083350 56 236 4.0 12.0 0.00 0.00 0.00 73 1009.8
20260505082850 55 200 3.0 5.0 0.00 0.00 0.00 72 1009.9
20260505082350 55 184 3.0 6.0 0.00 0.00 0.00 71 1009.8
20260505081849 55 214 3.0 4.0 0.00 0.00 0.00 71 1009.9
20260505081349 55 209 2.0 5.0 0.00 0.00 0.00 71 1009.9
20260505080854 0 147 255.0 0.0 0.00 0.00 0.00
20260505080849 55 209 2.0 5.0 0.00 0.00 0.00 71 1009.7
20260505080348 54 225 2.0 5.0 0.00 0.00 0.00 71 1009.5
20260505075848 54 164 2.0 3.0 0.00 0.00 0.00 71 1009.3
20260505075353 0 147 255.0 0.0 0.00 0.00 0.00
20260505075348 54 163 1.0 3.0 0.00 0.00 0.00 70 1009.3
20260505074848 55 163 1.0 2.0 0.00 0.00 0.00 70 1009.2
20260505074347 55 163 1.0 2.0 0.00 0.00 0.00 70 1009.1
20260505073852 0 147 255.0 0.0 0.00 0.00 0.00
20260505073847 55 163 2.0 3.0 0.00 0.00 0.00 70 1009.0
20260505073347 55 159 2.0 3.0 0.00 0.00 0.00 70 1009.1
20260505072846 55 158 2.0 3.0 0.00 0.00 0.00 69 1009.1
20260505072348 55 158 2.0 3.0 0.00 0.00 0.00 69 1009.0
20260505071848 55 161 2.0 3.0 0.00 0.00 0.00 69 1009.1
20260505071346 55 161 2.0 5.0 0.00 0.00 0.00 69 1009.2
20260505070850 0 147 255.0 0.0 0.00 0.00 0.00
20260505070845 55 182 2.0 3.0 0.00 0.00 0.00 69 1009.2
20260505070345 55 182 2.0 3.0 0.00 0.00 0.00 68 1009.2
20260505065845 55 183 2.0 3.0 0.00 0.00 0.00 68 1009.1
20260505065349 0 147 255.0 0.0 0.00 0.00 0.00
20260505065344 55 182 2.0 4.0 0.00 0.00 0.00 68 1009.1
20260505064844 56 208 2.0 5.0 0.00 0.00 0.00 67 1009.2
20260505064344 56 240 2.0 4.0 0.00 0.00 0.00 68 1009.2
20260505063848 0 147 255.0 0.0 0.00 0.00 0.00
20260505063844 56 201 2.0 6.0 0.00 0.00 0.00 67 1009.2
20260505063343 56 198 2.0 3.0 0.00 0.00 0.00 67 1009.2
20260505062843 56 188 2.0 3.0 0.00 0.00 0.00 66 1009.2
20260505062343 56 188 2.0 4.0 0.00 0.00 0.00 66 1009.3
20260505061842 56 192 2.0 4.0 0.00 0.00 0.00 66 1009.4
20260505061342 56 189 2.0 4.0 0.00 0.00 0.00 66 1009.4
20260505060847 0 147 255.0 0.0 0.00 0.00 0.00
20260505060842 56 190 2.0 4.0 0.00 0.00 0.00 66 1009.5
20260505060341 56 202 2.0 4.0 0.00 0.00 0.00 66 1009.6
20260505055841 56 192 2.0 5.0 0.00 0.00 0.00 65 1009.6
20260505055346 0 147 255.0 0.0 0.00 0.00 0.00
20260505055341 57 197 2.0 6.0 0.00 0.00 0.00 65 1009.6
20260505054841 57 177 2.0 5.0 0.00 0.00 0.00 65 1009.6
20260505054340 57 178 2.0 4.0 0.00 0.00 0.00 64 1009.6
20260505053845 0 147 255.0 0.0 0.00 0.00 0.00
20260505053840 57 208 2.0 4.0 0.00 0.00 0.00 65 1009.6
20260505053340 57 254 2.0 4.0 0.00 0.00 0.00 63 1009.7
20260505052840 57 259 2.0 4.0 0.00 0.00 0.00 63 1009.6
20260505052344 0 147 255.0 0.0 0.00 0.00 0.00
20260505052339 58 250 3.0 7.0 0.00 0.00 0.00 62 1009.7
20260505051839 58 217 3.0 7.0 0.00 0.00 0.00 62 1009.7
20260505051339 58 192 3.0 6.0 0.00 0.00 0.00 62 1009.6
20260505050844 0 147 255.0 0.0 0.00 0.00 0.00
20260505050838 58 200 3.0 8.0 0.00 0.00 0.00 62 1009.7
20260505050338 58 182 3.0 7.0 0.00 0.00 0.00 61 1009.6
20260505041335 57 221 3.0 9.0 0.00 0.00 0.00 60 1009.4
20260505040842 0 147 255.0 0.0 0.00 0.00 0.00
20260505040835 56 213 3.0 10.0 0.00 0.00 0.00 61 1009.5
20260505040335 56 191 2.0 5.0 0.00 0.00 0.00 61 1009.5
20260505035834 56 207 2.0 4.0 0.00 0.00 0.00 61 1009.4
20260505035339 0 147 255.0 0.0 0.00 0.00 0.00
20260505035334 56 207 2.0 4.0 0.00 0.00 0.00 61 1009.4
20260505034834 56 167 2.0 4.0 0.00 0.00 0.00 61 1009.3
20260505034333 56 212 2.0 4.0 0.00 0.00 0.00 61 1009.4
20260505033838 0 147 255.0 0.0 0.00 0.00 0.00
20260505033833 56 180 2.0 5.0 0.00 0.00 0.00 62 1009.4
20260505033333 56 183 1.0 3.0 0.00 0.00 0.00 61 1009.3
20260505032833 56 181 1.0 3.0 0.00 0.00 0.00 61 1009.4
20260505032339 0 147 255.0 0.0 0.00 0.00 0.00
20260505032332 56 181 1.0 4.0 0.00 0.00 0.00 62 1009.5
20260505031832 56 196 1.0 2.0 0.00 0.00 0.00 61 1009.6
20260505031332 56 196 1.0 2.0 0.00 0.00 0.00 61 1009.7
20260505030836 0 147 255.0 0.0 0.00 0.00 0.00
20260505030831 56 197 1.0 3.0 0.00 0.00 0.00 61 1009.7
20260505030331 57 202 1.0 5.0 0.00 0.00 0.00 60 1009.7
20260505025831 57 211 1.0 3.0 0.00 0.00 0.00 59 1009.8